Hartford, CT

4:12 PM EDT on September 19, 2017 (GMT -0400)
Hartford-brainard

Weather History for KHFD - October, 2011

Change the Weather History Date:

Wednesday, October 5, 2011

  Actual Average Record
Temperature  
Mean Temperature 61 °F -  
Max Temperature 70 °F 67 °F 88 °F (1941)
Min Temperature 46 °F 44 °F 30 °F (1965)
Degree Days  
Heating Degree Days 4    
Growing Degree Days 11 (Base 50)    
Moisture  
Dew Point 42 °F    
Average Humidity 54    
Maximum Humidity 81    
Minimum Humidity 29    
Precipitation  
Precipitation 0.00 in - - ()
Sea Level Pressure  
Sea Level Pressure 30.06 in    
Wind  
Wind Speed 6 mph (NNW)    
Max Wind Speed 20 mph    
Max Gust Speed 29 mph    
Visibility 10 miles    
Events      
Averages and records for this station are not official NWS values.
T = Trace of Precipitation, MM = Missing Value Source: NWS Daily Summary

Daily Weather History Graph

Daily Weather History Graph

Search for Another Location

Airport or City:

Trip Planner

Search our weather history database for the weather conditions in past years. The results will help you decide how hot, cold, wet, or windy it might be!

Date:

Astronomy

Oct. 05, 2011 Rise Set
Actual Time 6:51 AM EDT 6:26 PM EDT
Civil Twilight 6:23 AM EDT 6:53 PM EDT
Nautical Twilight 5:51 AM EDT 7:25 PM EDT
Astronomical Twilight 5:18 AM EDT 7:58 PM EDT
Moon 3:09 PM EDT (10/5) 12:29 AM EDT (10/5)
Length of Visible Light 12h 30m
Length of Day
11h 34m
Waxing Gibbous, 66% of the Moon is Illuminated
Oct 5
Waxing Gibbous
Oct 11
Full
Oct 19
Last Quarter
Oct 26
New
Nov 2
First Quarter

Hourly Weather History & Observations

Time (EDT) Temp. Dew Point Humidity Pressure Visibility Wind Dir Wind Speed Gust Speed Precip Events Conditions
12:53 AM 57.9 °F 51.1 °F 78% 29.96 in 10.0 mi WNW 3.5 mph - N/A   Overcast
1:53 AM 57.0 °F 51.1 °F 81% 29.95 in 10.0 mi Calm Calm - N/A   Mostly Cloudy
2:53 AM 57.9 °F 51.1 °F 78% 29.96 in 10.0 mi Calm Calm - N/A   Mostly Cloudy
3:53 AM 57.9 °F 51.1 °F 78% 29.96 in 10.0 mi NW 4.6 mph - N/A   Mostly Cloudy
4:53 AM 57.0 °F 50.0 °F 77% 29.98 in 10.0 mi Calm Calm - N/A   Clear
5:53 AM 57.0 °F 48.9 °F 74% 29.99 in 10.0 mi NW 5.8 mph - N/A   Clear
6:53 AM 57.2 °F 48.2 °F 72% 30.00 in 10.0 mi WNW 3.5 mph - N/A   Clear
7:53 AM 57.9 °F 48.9 °F 72% 30.01 in 10.0 mi NW 4.6 mph - N/A   Clear
8:53 AM 60.1 °F 48.9 °F 67% 30.02 in 10.0 mi Calm Calm - N/A   Scattered Clouds
9:53 AM 61.0 °F 48.9 °F 64% 30.02 in 10.0 mi NNW 8.1 mph - N/A   Mostly Cloudy
10:53 AM 64.4 °F 48.2 °F 56% 30.02 in 10.0 mi NNW 13.8 mph 21.9 mph N/A   Clear
11:53 AM 68.0 °F 46.9 °F 47% 30.01 in 10.0 mi WNW 11.5 mph 20.7 mph N/A   Clear
12:53 PM 68.0 °F 44.1 °F 42% 30.01 in 10.0 mi WNW 16.1 mph 27.6 mph N/A   Clear
1:53 PM 70.0 °F 39.9 °F 33% 30.01 in 10.0 mi NW 16.1 mph 26.5 mph N/A   Clear
2:53 PM 69.8 °F 42.8 °F 38% 30.00 in 10.0 mi NW 15.0 mph 28.8 mph N/A   Overcast
3:53 PM 68.0 °F 43.0 °F 40% 30.02 in 10.0 mi North 10.4 mph 17.3 mph N/A   Mostly Cloudy
4:53 PM 68.0 °F 36.0 °F 31% 30.04 in 10.0 mi NNW 19.6 mph 26.5 mph N/A   Partly Cloudy
5:53 PM 64.9 °F 37.0 °F 36% 30.08 in 10.0 mi NNW 19.6 mph 26.5 mph N/A   Clear
6:53 PM 61.0 °F 28.0 °F 29% 30.14 in 10.0 mi North 15.0 mph 20.7 mph N/A   Clear
7:53 PM 57.9 °F 28.0 °F 32% 30.18 in 10.0 mi North 11.5 mph - N/A   Clear
8:53 PM 55.9 °F 27.0 °F 33% 30.22 in 10.0 mi North 12.7 mph 18.4 mph N/A   Clear
9:53 PM 54.0 °F 27.0 °F 35% 30.25 in 10.0 mi North 8.1 mph - N/A   Clear
10:53 PM 52.0 °F 28.0 °F 40% 30.27 in 10.0 mi North 5.8 mph - N/A   Clear
11:53 PM 46.9 °F 37.0 °F 68% 30.27 in 10.0 mi Calm Calm - N/A   Clear